Location: McFarlands Corners
(41.4117°N, 81.3382°W)
Time: 06:19:15
(UTC+00:00)

Vanguard 2 Rocket - Visible Passes

Search period start: 18 February 2026 00:00
Search period end: 28 February 2026 00:00
Orbit: 553 x 3286 km, 32.9° (Epoch: 16 February)

Date Brightness Start Highest point End Pass type
(mag) Time Alt. Az. Time Alt. Az. Time Alt. Az.
19 Feb 9.8 00:35:43 10° WSW 00:37:59 11° SW 00:40:00 10° SSW visible
19 Feb 9.5 23:25:43 10° W 23:33:42 23° SW 23:39:13 10° S visible
21 Feb 9.9 23:28:48 10° W 23:35:39 18° SW 23:40:45 10° S visible
23 Feb 10.3 23:32:43 10° WSW 23:37:27 13° SW 23:41:21 10° SSW visible
